DRAGON CRS-23 DEB (49268 NORAD) Tracking and Keplerian Element Data

This shows tracking and keplerian element data for the satellite.

Feedback or suggestion? Click here.




ElementValue
Catalog49268
NameDRAGON CRS-23 DEB
Epoch Orbit218
Epoch Day287.79511212
Epoch Year2021
RAAN107.7035
Inclination51.6363
Eccentricity0.0098117
Argument of Perigee219.9992
Mean Anonmoly139.3757
Mean Motion15.85861041
Decay Rate0.00241038
L11 49268U 21078B 21287.79511212 .00241038 31157-4 65296-3 0 9995
L22 49268 51.6363 107.7035 0098117 219.9992 139.3757 15.85861041 2180

Live tracking and technical data element details for DRAGON CRS-23 DEB (NORAD 49268). DRAGON CRS-23 DEB can be tracked NOW for your location showing map with azimuth and elevation plus other details from your city location.

Track the satellite on the map from your city or location and see movement details for azimuth, elevation, latitude, longitude, range, height, and movement on the map or in text.







IsCatalogInMostPopularTable: catalog: 49268, numindb: 4
Update: records affected: 1



GetName: 49268 DRAGON CRS-23 DEB

Hit Count: updated at: Tue, 19 Oct 2021 09:36:52 GMT